#timestamp,LO_Frequency,Hit,StdDev 
1540850415.9,286047000.0,P
1540850435.7,286047000.4,P
1540850455.5,286046998.2,P
1540850475.4,286047000.7,N
1540850495.2,286046999.8,N
1540850515.1,286047000.5,N
1540850516.0,286047000.5,N
1540850535.8,286047000.4,N
1540850555.6,286047000.0,N
1540850575.5,286046999.9,N
1540850595.3,286046999.9,N
1540850615.1,286047001.0,N
1540850665.9,286046999.8,E
1540850675.8,286047002.2,N
1540850695.7,286047002.1,P
1540850715.5,286047001.7,P
1540850735.3,286047001.5,Y
1540850755.2,286047000.5,P
1540850775.0,286046998.6,N
1540850775.9,286046998.6,N
1540850795.8,286047011.9,Y
1540850815.6,286047000.2,P
1540850835.4,286047000.6,P
1540850855.3,286047000.0,N
1540850875.1,286047000.3,N
1540850895.9,286046998.6,Y
1540850915.7,286047001.2,P
1540850935.5,286046999.7,N
1540850955.4,286046998.6,N
1540850975.2,286046998.2,N
1540850995.1,286046999.9,N
1540850996.0,286046999.9,N
1540851015.8,286047000.9,N
1540851035.6,286047000.6,N
1540851055.5,286047000.4,N
1540851075.3,286047000.4,N
1540851095.2,286047001.2,N
1540851115.9,286047001.2,N
1540851135.7,286047001.2,N
1540851155.6,286047000.5,N
1540851175.4,286046999.8,N
1540851195.2,286047000.1,N
1540851215.1,286046999.7,N
1540851216.0,286046999.7,N
1540851235.8,286047000.2,N
1540851255.7,286047000.4,N
1540851275.5,286047001.1,N
1540851295.3,286047001.1,N
1540851315.2,286046998.3,N
1540851335.0,286046998.8,N
1540851335.9,286046998.8,N
1540851355.8,286046998.1,N
1540851375.6,286047000.8,N
1540851395.4,286047000.0,N
1540851415.3,286047000.4,N
1540851435.1,286047001.0,N
1540851455.8,286047001.1,N
1540851475.7,286047001.2,N
1540851495.5,286046998.5,N
1540851515.4,286046998.1,N
1540851535.2,286046998.1,N
1540851555.0,286046999.4,N
1540851555.9,286046999.4,N
1540851575.8,286046998.4,N
1540851595.6,286047000.7,N
1540851615.5,286046998.7,N
1540851635.3,286046999.1,N
1540851655.1,286047000.4,N
1540851675.9,286047002.7,N
1540851695.7,286047000.7,N
1540851715.5,286047000.6,N
1540851735.4,286047001.2,N
1540851755.2,286046998.1,N
1540851775.1,286047000.6,N
1540851776.0,286047000.6,N
1540851795.8,286047000.5,N
1540851815.6,286047002.8,N
1540851835.5,286047002.1,N
1540851855.3,286047001.6,N
1540851875.2,286047002.1,N
1540851895.9,286046999.8,N
1540851915.7,286047002.3,N
1540851935.6,286047002.3,N
1540851955.4,286046999.8,N
1540851975.2,286047002.8,N
1540851995.1,286047002.3,N
1540851996.0,286047002.3,N
1540852015.8,286047002.4,N
1540852035.7,286047002.5,N
1540852055.5,286047002.6,N
1540852075.3,286047002.8,N
1540852095.2,286047002.7,N
1540852115.0,286047002.8,N
1540852115.9,286047002.8,N
1540852135.8,286047002.6,N
1540852155.6,286046999.7,N
1540852175.4,286046999.9,N
1540852195.3,286047000.6,N
1540852215.1,286047002.6,N
1540852235.8,286047004.3,Y
1540852255.7,286047002.5,P
1540852275.5,286047000.0,N
1540852295.4,286047000.3,N
1540852315.2,286047000.6,N
1540852335.0,286047000.7,N
1540852335.9,286047000.7,N
1540852355.8,286047000.9,N
1540852375.6,286046998.2,N
1540852395.4,286046998.7,N
1540852415.3,286046998.1,N
1540852435.1,286046998.7,N
1540852455.9,286047000.7,N
1540852475.7,286046998.7,N
1540852495.5,286046998.9,N
1540852515.4,286046999.3,N
1540852535.2,286046996.7,N
1540852555.1,286046999.4,N
1540852556.0,286046999.4,N
1540852575.8,286046994.9,Y
1540852595.6,286046995.2,P
1540852615.5,286046993.5,N
1540852635.3,286046994.3,N
1540852655.1,286046993.4,N
1540852675.9,286046993.8,N
1540852695.7,286046994.0,N
1540852715.6,286046996.3,N
1540852735.4,286046996.0,N
1540852755.2,286046996.0,N
1540852775.1,286046996.3,N
1540852776.0,286046996.3,N
1540852795.8,286046993.4,Y
1540852815.6,286046999.9,P
1540852835.5,286047000.9,N
1540852855.3,286047000.6,N
1540852875.2,286047001.2,N
1540852895.9,286046999.6,N
1540852915.7,286046996.9,N
1540852935.3,286046997.0,N
1540852955.1,286046999.0,N
1540852975.8,286046999.3,N
1540852995.7,286046996.9,N
1540853015.5,286046997.1,N
1540853035.4,286046996.8,N
1540853055.2,286046996.5,N
1540853075.0,286046999.6,N
1540853075.9,286046999.6,N
1540853095.8,286046997.0,N
1540853115.6,286046996.1,N
1540853135.4,286046995.1,N
1540853155.3,286046995.3,N
1540853175.1,286046996.8,N
1540853195.9,286046996.9,N
1540853215.7,286046997.1,N
1540853235.5,286046997.0,N
1540853255.4,286046999.6,N
1540853275.2,286046997.9,N
1540853295.1,286046995.0,N
1540853296.0,286046995.0,N
1540853315.8,286046995.4,N
1540853335.6,286046997.4,N
1540853355.5,286046997.4,N
1540853375.3,286046997.3,N
1540853395.1,286046997.3,N
1540853415.9,286046995.1,Y
1540853435.7,286046998.8,P
1540853455.6,286046998.1,N
1540853475.4,286047000.5,N
1540853495.2,286046999.7,N
1540853515.1,286046999.9,N
1540853516.0,286046999.9,N
1540853535.8,286047000.8,N
1540853555.7,286046998.4,N
1540853575.5,286046998.4,N
1540853595.3,286046998.3,N
1540853615.2,286046999.0,N
1540853635.0,286046998.9,N
1540853635.9,286046998.9,N
1540853655.8,286046999.4,N
1540853675.6,286046998.8,N
1540853695.4,286046998.7,N
1540853715.3,286046999.3,N
1540853735.1,286047000.8,N
1540853755.8,286046998.4,N
1540853775.7,286046999.5,N
1540853795.5,286046997.0,Y
1540853815.4,286046999.2,P
1540853835.2,286046997.0,P
1540853855.0,286046999.6,N
1540853855.9,286046999.6,N
1540853875.8,286046998.0,N
1540853895.6,286046995.7,Y
1540853915.5,286046996.7,P
1540853935.3,286046999.2,N
1540853955.1,286046996.5,P
1540853975.9,286046999.2,N
1540853995.7,286046997.0,N
